Location: Franzen
(48.6167°N, 15.3833°E)
Time: 10:31:36
(UTC+00:00)

FALCON 9 DEB - Pass Details

Date: 22 April 2021
Orbit: 422 x 435 km, 53.0° (Epoch: 16 May)

Event Time Altitude Azimuth Distance (km) Brightness Sun altitude
Rises 21:02:49 0° 287° (WNW) 2,397 7.6 -23.9°
Reaches altitude 10° 21:05:00 10° 295° (WNW) 1,532 6.6 -24.1°
Enters shadow 21:07:58 39° 352° (N) 669 4.5 -24.3°
